Location: Arrodets-la-Barthe
(43.0306°N, 0.2829°E)
Time: 17:11:07
(UTC+00:00)

Lacrosse 4 Rocket - Pass Details

Date: 30 May 2022
Orbit: 541 x 611 km, 68.0° (Epoch: 30 June)

Event Time Altitude Azimuth Distance (km) Brightness Sun altitude
Exits shadow 03:19:16 13° 210° (SSW) 1,718 3.2 -10.2°
Maximum altitude 03:23:04 85° 298° (WNW) 584 1.4 -9.7°
Drops below altitude 10° 03:27:17 10° 28° (NNE) 1,870 5.3 -9.1°
Sets 03:29:29 0° 29° (NNE) 2,759 6.4 -8.8°
